Tracking 29892 objects as of 21-Nov-2024
HD Live streaming from Space Station
objects crossing your sky now

STARLINK-2505

Track STARLINK-2505 now!
10-day predictions
STARLINK-2505 is classified as:


NORAD ID: 48411
Int'l Code: 2021-038BL
Perigee: 553.6 km
Apogee: 554.9 km
Inclination: 53.1 °
Period: 95.6 minutes
Semi major axis: 6925 km
RCS: Unknown
Launch date: May 4, 2021
Source: United States (US)
Launch site: AIR FORCE EASTERN TEST RANGE (AFETR)
Your satellite tracking list
Your tracking list is empty




NASA's NSSDC Master Catalog

Two Line Element Set (TLE):
1 48411U 21038BL  24325.84750174  .00022491  00000-0  15228-2 0  9992
2 48411  53.0558 258.7769 0000955  90.5940 269.5158 15.06429582196594
Source of the keplerian elements: AFSPC